Hourly Weather Roundup
Issued by NWS Central Illinois

Home | Current Version | Previous Version | Text Only | Print | Product List | Glossary On
Versions: 1 2 3 4 5 6 7 8 9 10 11 12 13 14 15 16 17 18 19 20 21 22 23 24 25 26 27 28 29 30 31 32 33 34 35 36 37 38 39 40 41 42 43 44 45 46 47 48 49 50
000
NZUS43 KILX 300810
HWRILX

Area Weather Roundup
National Weather Service Lincoln IL
300 AM CDT SUN APR 30 2017

NOTE:  "FAIR" indicates few or no clouds below 12,000 feet, with
       no sigificant weather and/or obstructions to visibility.


CITY           SKY/WX    TMP DP  RH WIND       PRES   REMARKS
Bloomington    LGT RAIN  47  47 100 E8        29.88R VSB 3/4
Champaign      LGT RAIN  55  53  93 NE5       29.82F
Danville       RAIN      60  60  99 W3        29.85R
Decatur        CLOUDY    51  51 100 NE3       29.83F
Effingham      CLOUDY    63  63 100 E7        29.82F
Flora          LGT RAIN  64  63  96 SE3       29.82F
Galesburg      CLOUDY    45  44  97 NE10      29.86S
Jacksonville   RAIN      46  45  99 CALM      29.86S
Lacon          LGT RAIN  45  45 100 NE9       29.86F
Lawrenceville  CLOUDY    64  63  96 SE9       29.84F
Litchfield     RAIN      48  48 100 N6        29.85S
$$


CITY           SKY/WX    TMP DP  RH WIND       PRES   REMARKS
Lincoln        RAIN      48  48 100 N5        29.84F
Macomb         LGT RAIN  45  45  99 NE13      29.87F
Mattoon        CLOUDY    62  61  96 S10       29.81F
Mt Carmel AP   CLOUDY    64  62  94 SE9       29.83F
Olney-Noble AP CLOUDY    63  63 100 SE6       29.82F
Paris AP       MOCLDY   N/A N/A N/A SE8       29.81F
Peoria         LGT RAIN  46  46 100 NE10      29.85F
Pontiac        CLOUDY    48  48  98 NE16      29.87R FOG
Rantoul        RAIN      56  56  98 CALM      29.84F
Robinson       MOCLDY    62  62  99 SE5       29.84F
Springfield    RAIN      49  47  93 CALM      29.85F FOG
Taylorville    RAIN      48  48  99 N3        29.84R
$$

...REGIONAL REPORTS...


CITY           SKY/WX    TMP DP  RH WIND       PRES   REMARKS
Chicago O`Hare DRIZZLE   43  41  93 NE16      29.94F
Kankakee       CLOUDY    48  47  97 NE9       29.88S FOG
Moline         CLOUDY    45  41  86 NE16      29.87F
Mount Sterling LGT RAIN  45  44  98 CALM      29.87R
Mount Vernon   RAIN      63  62  97 E5        29.80F
Pittsfield     RAIN      46  46  99 NW6       29.89R
Quincy         LGT RAIN  45  45 100 E9        29.86F
Rockford       CLOUDY    44  40  85 NE15G25   29.95F
$$


CITY           SKY/WX    TMP DP  RH WIND       PRES   REMARKS
Burlington     CLOUDY    43  43 100 E14       29.84F
Cedar Rapids   CLOUDY    40  40 100 NE21G31   29.87F WCI  30
Des Moines     DRIZZLE   41  38  89 NE14      29.91R WCI  33
Kirksville     LGT RAIN  42  14  32 E16       29.80F WCI  34
Ottumwa        CLOUDY    42  41  96 NE16G24   29.84F WCI  34
St Louis       HVY RAIN  53  51  93 N8        29.83F FOG
$$


CITY           SKY/WX    TMP DP  RH WIND       PRES   REMARKS
Terre Haute    MOCLDY    63  61  93 E6        29.83F
Evansville       N/A    N/A N/A N/A MISG      29.85F
Indianapolis   CLOUDY    57  56  96 E7        29.89S
Lafayette      LGT RAIN  57  57 100 E9        29.86F
Madison        CLOUDY    39  36  89 NE16      30.02F WCI  30
Milwaukee      CLOUDY    41  40  96 NE18G25   30.03F WCI  32
$$





USA.gov is the U.S. government's official web portal to all federal, state and local government web resources and services.